STARLINK-34163, 64008

Orbit data source: Space-Track

STARLINK-34163, 64008 is a payload satellite owned by SpaceX/Seattle (US) in LEO that was launched on Wed, 14 May 2025 UTC via an FALCON 9 launch vehicle from the Air Force Eastern Test Range (AFETR). Payload-class satellites include a variety of spacecraft equipped with specific instruments for various scientific and technological missions. These include communications satellites like Starlink; space stations such as the ISS; scientific satellites like the Hubble; Earth observation satellites from companies like Planet Labs, Umbra, and HawkEye 360; GPS; miniature CubeSats for education and research; and military/defense satellites.

Loading next visibility...
Identifier
64008, 2025-101Q
Orbit
LEO
Country
Flag of USUS
Related business
Manufacturer
SpaceX/Seattle
Mission
Operational Commercial Communications
Bus & Motor
STARLINK V2MO, Unknown motor
Mass
575 kg wet, ~530 kg dry
Launch date (UTC)
2025-05-14 (1 year ago)
Launch vehicle
FALCON 9
Launch site
Air Force Eastern Test Range (AFETR)
Object type
Payload
Rocket body
Debris
Shape & HBR
Box + 2 Pan, 17.7 m
Radar Cross Section
36.964 m², Large (>1 m²)

Expand to show TLE details & history
Last TLE update: 13 hours ago

TLE from 13 hours ago
0 STARLINK-34163
1 64008U 25101Q   26171.28323750  .00023327  00000-0  85486-3 0  9995
2 64008  43.0011 138.7381 0001517 267.1951  92.8727 15.27566434 62742
Epoch: 2026-06-20T06:47Z
TLE epoch observation values (Epoch: 2026-06-20T06:47:51.719Z)
Latitude
Longitude
128.27252°
Altitude
482.918 km
Speed
7.626 km/s
True Right ascension
09h 14m 57s
True Declination
0° 00' 00"
Sunlit
Object was in daylight at epoch
Visualization orbit readout
Latitude
Unknown
Longitude
Unknown
Altitude
Unknown
Speed
Unknown
Apparent Right ascension
Unknown
Apparent Declination
Unknown
Sunlit
N/A
Visualization observer readout
Local Sidereal Time
07:11:57
Azimuth
Unknown
Elevation
Unknown
Doppler factor
Unknown
Orbital elements
Apogee altitude
486.076 km
Perigee altitude
483.994 km
Semi-major axis
6,863.172 km
Eccentricity
0.00015
Inclination
43.0011°
RAAN
138.7381°
Arg. of periapsis
267.1951°
True anomaly
92.89006°
Mean anomaly
92.8727°
Eccentric anomaly
92.88138°
Mean motion
3.8173 °/min
Orbital period
94.31 mins
BSTAR
0.00085486
Loading maneuver chart data...
Computing Atmospheric mass density...
Loading historical data...
Loading historical data...
Loading historical data...
Loading historical data...
Loading historical data...
Loading historical data...
Loading historical data...

Documentation

Showing up to 5 results
|